Location: Brachbach
(49.1847°N, 9.7240°E)
Time: 07:13:18
(UTC+00:00)

FO-29 - Pass Details

Date: 18 March 2026
Orbit: 801 x 1320 km, 98.5° (Epoch: 17 April)

Event Time Altitude Azimuth Distance (km) Brightness Sun altitude
Rises 21:46:26 0° 9° (N) 4,115 13.3 -36.7°
Reaches altitude 10° 21:49:27 10° 357° (N) 3,211 12.8 -37.0°
Maximum altitude 21:55:21 26° 305° (NW) 2,295 11.8 -37.5°
Drops below altitude 10° 22:01:28 10° 254° (WSW) 3,343 12.4 -38.0°
Sets 22:04:42 0° 242° (WSW) 4,316 12.9 -38.2°
